Flight Track Log - Related Links

Times and Time Zones

All times are in EDT time to prevent confusion due to time zone crossing. See the SKW5631 flight status page for this flight to view local times or setup timezone preferences in your user account.

Time Position Orientation Groundspeed Altitude Reporting Facility
EDT Latitude Longitude Course Direction KTS MPH feet Rate Location/Type
Mon 10:55:33 PM 37.6942 -122.3753 290° West 258 297 2,800  Level Oakland Center
Mon 10:56:34 PM 37.7172 -122.4564 290° West 260 299 4,800 2,293 Climbing Oakland Center
Mon 10:57:36 PM 37.6547 -122.4942 206° Southwest 286 329 7,500 2,419 Climbing Oakland Center
Mon 10:58:38 PM 37.5869 -122.4431 149° Southeast 294 338 9,800 1,918 Climbing Oakland Center
Mon 10:59:38 PM 37.5189 -122.3714 140° Southeast 317 365 11,400 1,785 Climbing Oakland Center
Mon 11:00:39 PM 37.4467 -122.2939 140° Southeast 339 390 13,400 1,770 Climbing Oakland Center
Mon 11:01:40 PM 37.3733 -122.2156 140° Southeast 345 397 15,000 1,525 Climbing Oakland Center
Mon 11:02:41 PM 37.2969 -122.1333 139° Southeast 358 412 16,500 1,426 Climbing Oakland Center
Mon 11:03:42 PM 37.2194 -122.0492 139° Southeast 369 425 17,900 1,475 Climbing Oakland Center
Mon 11:04:43 PM 37.1233 -121.9478 140° Southeast 376 433 19,500 1,377 Climbing Oakland Center
Mon 11:05:44 PM 37.0422 -121.8625 140° Southeast 380 437 20,700 1,073 Climbing Oakland Center
Mon 11:06:46 PM 36.9597 -121.7756 140° Southeast 386 444 21,700 927 Climbing Oakland Center
Mon 11:07:47 PM 36.8753 -121.6886 141° Southeast 393 452 22,600 836 Climbing Oakland Center
Mon 11:08:48 PM 36.7928 -121.6022 140° Southeast 400 460 23,400 738 Climbing Oakland Center
Mon 11:09:49 PM 36.7047 -121.5092 140° Southeast 411 473 24,100 787 Climbing Oakland Center
Mon 11:10:50 PM 36.6169 -121.4164 140° Southeast 414 476 25,000 836 Climbing Oakland Center
Mon 11:11:51 PM 36.5286 -121.3256 140° Southeast 414 476 25,800 787 Climbing Oakland Center
Mon 11:12:52 PM 36.4397 -121.2328 140° Southeast 416 479 26,600 590 Climbing Oakland Center
Mon 11:13:53 PM 36.3333 -121.1219 140° Southeast 416 479 27,000 195 Climbing Oakland Center
Mon 11:14:55 PM 36.2408 -121.0267 140° Southeast 427 491 27,000  Level Oakland Center
Mon 11:15:56 PM 36.1453 -120.9292 141° Southeast 440 506 27,000  Level Oakland Center
Mon 11:16:57 PM 36.0494 -120.8308 140° Southeast 446 513 27,000  Level Oakland Center
Mon 11:17:58 PM 35.9531 -120.7311 140° Southeast 451 519 27,000  Level Oakland Center
Mon 11:18:59 PM 35.8547 -120.6303 140° Southeast 456 525 27,000  Level Oakland Center
Mon 11:20:00 PM 35.7572 -120.5319 141° Southeast 455 524 27,000  Level Oakland Center
Mon 11:21:01 PM 35.6592 -120.4314 140° Southeast 456 525 27,000  Level Oakland Center
Mon 11:22:02 PM 35.5597 -120.3311 141° Southeast 457 526 27,000  Level Oakland Center
Mon 11:23:03 PM 35.4581 -120.2294 141° Southeast 459 528 27,000  Level Oakland Center
Mon 11:24:04 PM 35.3564 -120.1258 140° Southeast 461 531 27,000  Level Oakland Center
Mon 11:25:05 PM 35.2569 -120.0278 141° Southeast 457 526 27,000  Level Oakland Center
Mon 11:26:06 PM 35.1583 -119.9300 141° Southeast 457 526 27,000 -984 Level Oakland Center
Mon 11:27:07 PM 35.0639 -119.8250 138° Southeast 460 529 25,000 -2,066 Descending Oakland Center
Mon 11:28:08 PM 34.9775 -119.7078 132° Southeast 464 534 22,800 -2,164 Descending Oakland Center
Mon 11:29:09 PM 34.8908 -119.5914 132° Southeast 464 534 20,600 -2,410 Descending Oakland Center
Mon 11:30:10 PM 34.7886 -119.4564 133° Southeast 457 526 17,900 -2,410 Descending Oakland Center
Mon 11:31:11 PM 34.7083 -119.3486 132° Southeast 444 511 15,700 -2,164 Descending Oakland Center
Mon 11:32:12 PM 34.6300 -119.2456 133° Southeast 428 493 13,500 -1,907 Descending Oakland Center
Mon 11:33:42 PM 34.5192 -119.0969 132° Southeast 393 452 10,900 -1,113 Descending Los Angeles Center
Mon 11:34:43 PM 34.4597 -119.0156 132° Southeast 313 360 10,700 -976 Descending Los Angeles Center
Mon 11:35:45 PM 34.4131 -118.9394 127° Southeast 281 323 8,900 -1,645 Descending Los Angeles Center
Mon 11:36:47 PM 34.3653 -118.8667 128° Southeast 276 318 7,300 -1,366 Descending Los Angeles Center
Mon 11:37:48 PM 34.3183 -118.7964 129° Southeast 267 307 6,100 -1,113 Descending Los Angeles Center
Mon 11:38:51 PM 34.2744 -118.7278 128° Southeast 261 300 5,000 -919 Descending Los Angeles Center
Mon 11:39:52 PM 34.2347 -118.6650 127° Southeast 249 287 4,200 -488 Descending Los Angeles Center
Mon 11:40:54 PM 34.2039 -118.6114 125° Southeast 220 253 4,000 -390 Descending Los Angeles Center
Mon 11:41:55 PM 34.2006 -118.5325 93° East 204 235 3,400 -829 Descending Los Angeles Center
Mon 11:42:57 PM 34.1992 -118.4706 92° East 194 223 2,300 -919 Descending Los Angeles Center
Mon 11:43:59 PM 34.1992 -118.4147 90° East 182 209 1,500 -532 Descending Los Angeles Center
Mon 11:45:01 PM 34.1981 -118.3669 92° East 174 200 1,200 -290 Descending Los Angeles Center

Login

Don't have an account? Register now (free) for customized features, flight alerts, and more!